www.pogodaiklimat.ru
ПОГОДА в Коконао
Время
(UTC), дата
03 20.09
06 20.09
09 20.09
12 20.09
15 20.09
18 20.09
21 20.09
00 21.09
03 21.09
06 21.09
09 21.09
12 21.09
15 21.09
18 21.09
21 21.09
00 22.09
03 22.09
06 22.09
09 22.09
12 22.09
15 22.09
18 22.09
21 22.09
00 23.09
03 23.09
06 23.09
09 23.09
12 23.09
15 23.09
18 23.09
21 23.09
00 24.09
03 24.09
06 24.09
09 24.09
12 24.09
15 24.09
18 24.09
21 24.09
00 25.09
03 25.09
06 25.09
09 25.09
12 25.09
15 25.09
18 25.09
21 25.09
00 26.09
03 26.09
06 26.09
09 26.09
12 26.09
15 26.09
18 26.09
21 26.09
00 27.09
Ветер
(напр.,м/с)
Видим. Явления Облачность Т
(С)
Тd
(С)
f
(%)
Тe
(С)
Тes
(С)
Комфортность P
(гПа)
Po
(гПа)
Тmin
(С)
Tmax
(С)
R
(мм)
R24
(мм)
S
(см)
В 3 8000 м 9/6 360 м
[Cu hum Ac trans Ci sp]
+30.5 +23.8 67 +42 +46 опасность
перегрева
1011.5 1006.7
ЮЗ 3 9000 м 8/4 450 м
[Sc Ac trans Ci sp]
+28.9 +23.8 74 +40 +43 очень
душно
1008.9 1003.7
штиль 0 7000 м 8/4 450 м
[Sc Ac trans Ci sp]
+26.6 +23.9 85 +37 +37 очень
душно
1010.3 1005.6
штиль 0 6000 м 9/5 450 м
[Sc Ac trans Ci sp]
+25.3 +23.5 90 +34 +34 очень
душно
1012.4 1007.6 +31.6
штиль 0 6000 м 9/5 450 м
[Sc Ac trans Ci sp]
+24.6 +23.2 92 +33 +33 очень
душно
1012.0 1007.2
штиль 0 6000 м 9/5 480 м
[Sc Ac trans Ci sp]
+24.3 +23.3 94 +33 +33 очень
душно
1011.2 1006.4
штиль 0 8000 м 10/4 500 м
[Sc Ac und]
+23.8 +23.0 95 +32 +32 очень
душно
1011.9 1007.1
штиль 0 10 км 8/3 500 м
[Sc Ac trans Ci sp]
+27.4 +23.6 80 +37 +45 очень
душно
1011.3 1006.5 +23.8
ЮВ 4 10 км 8/6 480 м
[Cu hum Ac trans Ci sp]
+30.6 +24.1 68 +42 +47 опасность
перегрева
1009.4 1004.7
В 3 8000 м 9/6
[Cb cap Ac trans Ci sp]
+31.0 +24.5 68 +43 +46 опасность
перегрева
1007.5 1002.7
СЗ 2 8000 м 9/8 420 м
[Sc diur, vesp Ac trans Ci sp]
+26.9 +23.7 83 +37 +37 очень
душно
1008.9 1004.1
СЗ 2 6000 м 9/5 420 м
[Sc Ac trans Ci sp]
+26.0 +24.5 91 +36 +36 очень
душно
1010.8 1006.0 +32.3
штиль 0 4000 м слаб. дождь 10/6 400 м
[Sc Ac As]
+25.4 +24.0 92 +35 +35 очень
душно
1010.8 1006.0 0.0
штиль 0 5000 м {дождь} 10/6 400 м
[Sc Ac As]
+24.8 +23.7 94 +34 +34 очень
душно
1009.3 1004.6 1
штиль 0 6000 м 9/4 450 м
[Sc Ac trans Ci sp]
+24.5 +23.3 93 +33 +33 очень
душно
1011.0 1006.2
С 2 10 км 9/4 500 м
[Sc As op Ci sp]
+27.0 +24.3 85 +38 +42 очень
душно
1012.9 1008.1 +23.0 1
СЗ 3 10 км 9/6 500 м
[Sc diur, vesp As op Ci sp]
+29.8 +24.1 72 +42 +46 опасность
перегрева
1010.6 1005.8
З 3 6000 м 9/8
[Cb cap Ac trans Ci sp]
+30.2 +25.1 74 +44 +45 опасность
перегрева
1008.8 1004.0
З 3 4000 м гроза, ливневой дождь 9/8
[Cb cap Ac trans Ci sp]
+25.4 +24.3 94 +35 +35 очень
душно
1010.6 1006.0 9
штиль 0 5000 м сильн. дождь {гроза} 10/4 300 м
[Cb cap As trans Ci ing]
+24.2 +22.3 89 +31 +31 очень
душно
1012.1 1007.3 +31.0 3
штиль 0 5000 м мгла 10/6 300 м
[Cb cap As trans]
+24.4 +23.7 96 +33 +33 очень
душно
1011.7 1006.9
штиль 0 5000 м мгла 10/6 400 м
[Cb cap As trans]
+24.1 +23.3 95 +32 +32 очень
душно
1011.2 1006.4
штиль 0 5000 м слаб. дождь 10/8 300 м
[Cb cap As trans]
+23.9 +23.2 96 +32 +32 очень
душно
1013.6 1008.8 3
штиль 0 10 км {дождь} 9/5 360 м
[Cb calv Ac trans Ci sp]
+25.7 +24.5 93 +36 +41 очень
душно
1013.5 1008.7 +23.5 5
Ю 4 10 км 9/8 420 м
[Sc Ac trans Ci sp]
+29.1 +24.2 75 +41 +43 опасность
перегрева
1010.1 1005.4
Ю 4 10 км 9/5 500 м
[Sc As op Ci sp]
+29.3 +23.1 69 +39 +41 очень
душно
1009.5 1004.7
В 2 10 км 10/6 400 м
[Cb calv As op]
+25.4 +23.2 88 +34 +34 очень
душно
1011.7 1006.9
З 2 7000 м 10/8
[Cb cap As op]
+24.0 +23.4 96 +32 +32 очень
душно
1013.3 1008.5 +30.0
штиль 0 7000 м 10/5 450 м
[Sc As op]
+23.8 +23.2 96 +32 +32 очень
душно
1012.6 1007.8
штиль 0 5000 м слаб. дождь 10/5 450 м
[Sc As op]
+23.6 +23.3 98 +32 +32 очень
душно
1011.0 1006.2 0.0
штиль 0 8000 м в посл. час дождь 9/5 500 м
[Sc Ac trans Ci sp]
+23.8 +23.5 98 +32 +32 очень
душно
1012.3 1007.5 0.1
СВ 2 8000 м {дождь} 9/3 450 м
[Cu hum Ac trans Ci sp]
+25.8 +23.5 87 +35 +40 очень
душно
1014.3 1009.5 +23.6 0.2
ЮВ 2 8000 м 8/6 450 м
[Cu hum Ac trans Ci sp]
+29.8 +23.3 68 +40 +47 очень
душно
1011.1 1006.3
С 2 8000 м 9/8 400 м
[Cb cap Ac trans Ci sp]
+30.7 +23.8 67 +42 +44 опасность
перегрева
1008.8 1004.0
штиль 0 5000 м слаб. дождь 9/6 360 м
[Cb cap Ac trans Ci sp]
+25.3 +24.6 96 +36 +36 очень
душно
1010.8 1006.0 21
штиль 0 5000 м в посл. час дождь 10/6 480 м
[Sc As op]
+25.0 +24.5 97 +35 +35 очень
душно
1013.5 1008.7 +31.0 3
штиль 0 5000 м 10/6 480 м
[Sc As op]
+24.4 +23.6 95 +33 +33 очень
душно
1012.8 1008.0
штиль 0 5000 м 10/6 480 м
[Sc As op]
+24.0 +23.2 95 +32 +32 очень
душно
1011.0 1006.2
штиль 0 9000 м 10/5 480 м
[Sc As op]
+24.0 +23.4 96 +32 +32 очень
душно
1012.1 1007.3
штиль 0 8000 м {туман} 9/3 420 м
[Cu hum Ac und Ci sp]
+26.9 +24.3 86 +38 +44 очень
душно
1013.6 1008.8 +23.8 24
штиль 0 9000 м 9/6 420 м
[Cu hum Ac trans Ci sp]
+30.6 +24.8 71 +43 +51 опасность
перегрева
1011.4 1006.6
ЮЗ 2 8000 м в посл. час ливневой дождь 8/5 300 м
[Cb cap Ac trans Ci sp]
+29.3 +25.7 81 +43 +47 опасность
перегрева
1008.8 1004.0 4
штиль 0 5000 м 10/6 400 м
[Sc Ac trans]
+26.2 +23.9 87 +36 +36 очень
душно
1010.4 1005.7
штиль 0 6000 м 8/3 480 м
[Sc Ac trans Ci sp]
+24.9 +23.9 94 +34 +34 очень
душно
1011.8 1007.0 +32.2
штиль 0 6000 м 8/4 400 м
[Cb cap Ac trans Ci sp]
+24.8 +23.8 94 +34 +34 очень
душно
1011.4 1006.6
штиль 0 6000 м {дождь} 9/4 450 м
[Sc Ac trans Ci sp]
+24.6 +24.1 97 +34 +34 очень
душно
1010.8 1006.0 0.2
штиль 0 7000 м 10/6 450 м
[Sc Ac trans]
+24.5 +23.8 96 +33 +33 очень
душно
1012.2 1007.4
СВ 2 8000 м гроза без осадков 9/6
[Cb calv Ac trans Ci sp]
+25.7 +24.5 93 +36 +39 очень
душно
1014.2 1009.4 +23.4 4
В 2 8000 м {дождь} 9/5 450 м
[Cu hum Ac trans Ci sp]
+28.3 +23.8 77 +39 +46 очень
душно
1011.9 1007.1 0.8
Ю 4 8000 м {дождь} 8/5 450 м
[Cu hum Ac trans Ci fib]
+30.2 +25.0 74 +44 +46 опасность
перегрева
1009.3 1004.5 0.8
штиль 0 7000 м 9/5 480 м
[Sc Ac und Ci sp]
+27.5 +24.4 83 +39 +39 очень
душно
1009.9 1005.1
штиль 0 5000 м гроза без осадков 10/6 300 м
[Cb cap Ac trans]
+26.1 +24.7 92 +37 +37 очень
душно
1012.6 1007.8 +30.4
штиль 0 5000 м слаб. дождь {гроза} 10/6 400 м
[Sc As op]
+25.5 +24.2 93 +35 +35 очень
душно
1012.8 1008.0 0.0
штиль 0 5000 м слаб. ливневой дождь, в посл. час гроза 10/6 300 м
[Cb cap As op]
+24.2 +23.4 95 +32 +32 очень
душно
1010.9 1006.1 4
С 2 5000 м {дождь} 10/6 450 м
[Sc Ac trans]
+24.0 +23.3 96 +32 +32 очень
душно
1012.2 1007.4 3
СВ 2 6000 м слаб. дождь 10/8 360 м
[Sc Ac trans]
+25.4 +24.0 92 +35 +36 очень
душно
1014.9 1010.0 +23.8 0.0
Местоположение метеостанции Коконао (Индонезия): широта -5.00 долгота 137.45 высота над уровнем моря 3 м.
В архиве по умолчанию представлена погода в Коконао за последнюю неделю. Архивные данные за месяц целиком и за предыдущие месяцы, начиная с января 2011 года, Вы можете получить, выбрав интересующий диапазон дат из раскрывающегося списка и нажав кнопку "Найти!".
*Определитесь, кто Вы:
Внимание! Время в таблицах - всемирное. Для получения местного времени необходимо прибавить поправку, которая равна 9 ч.
Смотрите также архив погоды в соседних городах и на ближайших метеорологических станциях:
Партнеры нашего сайта:      
Пояснения к столбцам:
  • Ветер - указаны скорость ветра в м/с - средняя за 10 мин, порывы в срок и между сроками (в фигурных скобках) и направление, откуда дует ветер: С - северный,
  • СВ - северо-восточный, В - восточный, ЮВ - юго-восточный, Ю - южный, ЮЗ - юго-западный, З - западный, СЗ - северо-западный.
  • Видимость - горизонтальная дальность видимости в метрах или километрах. При видимости от 1 до 10 км при отсутствии осадков обычно наблюдается дымка, при ухудшении видимости до 1 км и менее - туман. В сухую погоду видимость может ухудшаться дымом, пылью или мглою.
  • Явления - указаны атмосферные явления, наблюдавшиеся в срок или в последний час перед сроком; фигурными скобками обозначены явления, наблюдавшиеся между сроками (за 1-3 часа до срока); квадратными скобками обозначены град или гололедные отложения с указанием их диаметра в мм.
  • Облачность - указаны через наклонную черту общая и нижняя облачность в баллах и высота нижней границы облаков в метрах; квадратными скобками обозначены формы облаков: Ci - перистые, Cs - перисто-слоистые, Cc - перисто-кучевые, Ac - высококучевые, As - высокослоистые, Sc - слоисто-кучевые, Ns - слоисто-дождевые, Cu - кучевые, Cb - кучево-дождевые. Подробнее классификацию облаков см. в Атласе облаков (PDF).
  • T - Температура воздуха - температура, измеренная на высоте 2 м над землей.
  • Td - Температура точки росы - температура, при понижении до которой содержащийся в воздухе водяной пар достигнет насыщения.
  • f - Относительная влажность воздуха - влажноcть воздуха, измеренная на высоте 2 м над землей.
  • Te - Эффективная температура - температура, которую ощущает одетый по сезону человек в тени. Характеристика душности погоды. При расчете учитывается влияние влажности воздуха и скорости ветра на теплоощущения человека.
  • Tes - Эффективная температура на солнце - температура, которую ощущает человек, с поправкой на солнечный нагрев. Характеристика знойности погоды. Зависит от высоты солнца над горизонтом, облачности и скорости ветра. Ночью, в пасмурную погоду, а также при ветре 12 м/с и более поправка равна нулю.
  • P - Атмосферное давление - приведенное к уровню моря атмосферное давление.
  • Po - Атмосферное давление - измеренное на уровне метеостанции атмосферное давление.
  • Tmin - Минимальная температура - минимум температуры воздуха на высоте 2 м над землей.
  • Tmax - Максимальная температура - максимум температуры воздуха на высоте 2 м над землей.
  • R - Количество осадков - Количество выпавших осадков за период времени, мм. При наведении курсора мыши на число - период времени, за который выпало указанное количество осадков.
  • R24 - Количество осадков - Количество выпавших осадков за 24 часа, мм.
  • S - Снежный покров - Высота снежного покрова, см. При наведении курсора мыши на число - состояние снежного покрова и степень покрытия местности в баллах.